BAW36Y EGPH-EGLL

Flight info

Callsign BAW36Y
Flight time N/A
Altitude 33000
Route GOSAM P600 FENIK L612 NAVSO DCT AKOMU DCT VAMEB DCT NUGRA
Aircraft B77W/H-SDE1E2E3FGHIJ2J3J4J5M1RWXY/LB1D1

Departure

Time 2026-04-24 19:05
Airport Edinburgh Airport (EGPH)

Arrival

Time N/A
Airport London Heathrow Airport (EGLL)
Time Latitude Longitude Altitude Speed Heading
2026-04-24 18:54 55.95024 -3.36052 112 ft 0 kts 249°
2026-04-24 18:56 55.95028 -3.36037 108 ft 2 kts 249°
2026-04-24 18:56 55.95037 -3.36014 108 ft 2 kts 216°
2026-04-24 18:57 55.95050 -3.35997 109 ft 2 kts 216°
2026-04-24 18:57 55.95063 -3.35980 107 ft 2 kts 216°
2026-04-24 18:57 55.95075 -3.35962 107 ft 2 kts 247°
2026-04-24 18:57 55.95077 -3.35941 108 ft 1 kts 295°
2026-04-24 18:58 55.95076 -3.35935 107 ft 0 kts 300°
2026-04-24 18:59 55.95078 -3.35944 108 ft 5 kts 297°
2026-04-24 18:59 55.95105 -3.36066 109 ft 11 kts 290°
2026-04-24 19:00 55.95130 -3.36202 109 ft 12 kts 285°
2026-04-24 19:00 55.95114 -3.36342 110 ft 12 kts 238°
2026-04-24 19:00 55.95063 -3.36490 110 ft 22 kts 239°
2026-04-24 19:00 55.94975 -3.36751 110 ft 25 kts 239°
2026-04-24 19:01 55.94883 -3.37018 109 ft 26 kts 239°
2026-04-24 19:01 55.94793 -3.37291 111 ft 26 kts 239°
2026-04-24 19:01 55.94700 -3.37561 114 ft 26 kts 239°
2026-04-24 19:01 55.94608 -3.37832 113 ft 26 kts 240°
2026-04-24 19:02 55.94547 -3.38011 113 ft 26 kts 239°
2026-04-24 19:02 55.94424 -3.38373 116 ft 26 kts 238°
2026-04-24 19:02 55.94352 -3.38586 118 ft 15 kts 239°
2026-04-24 19:02 55.94299 -3.38743 119 ft 10 kts 239°
2026-04-24 19:03 55.94282 -3.38833 122 ft 6 kts 285°
2026-04-24 19:03 55.94296 -3.38870 120 ft 2 kts 314°
2026-04-24 19:03 55.94307 -3.38884 123 ft 3 kts 327°
2026-04-24 19:03 55.94331 -3.38910 122 ft 6 kts 328°
2026-04-24 19:04 55.94382 -3.38965 119 ft 10 kts 334°
2026-04-24 19:04 55.94455 -3.38849 119 ft 39 kts 59°
2026-04-24 19:04 55.94762 -3.37945 119 ft 127 kts 59°
2026-04-24 19:04 55.95345 -3.36261 279 ft 175 kts 58°
2026-04-24 19:05 55.95927 -3.34372 1119 ft 178 kts 60°
2026-04-24 19:05 55.96639 -3.32499 1879 ft 187 kts 42°
2026-04-24 19:05 55.97719 -3.31007 2338 ft 210 kts 36°
2026-04-24 19:05 55.98944 -3.29243 2661 ft 241 kts 38°
2026-04-24 19:06 56.00434 -3.27850 3321 ft 248 kts
2026-04-24 19:06 56.02126 -3.28351 4192 ft 254 kts 330°
2026-04-24 19:06 56.03329 -3.30644 5134 ft 261 kts 294°
2026-04-24 19:06 56.03575 -3.33835 5803 ft 266 kts 262°
2026-04-24 19:07 56.03066 -3.37056 6002 ft 274 kts 253°
2026-04-24 19:07 56.02460 -3.40294 6044 ft 274 kts 254°
2026-04-24 19:07 56.02090 -3.42450 6415 ft 273 kts 255°
2026-04-24 19:07 56.01386 -3.46812 7808 ft 273 kts 256°
2026-04-24 19:08 56.00888 -3.50099 8816 ft 276 kts 257°
2026-04-24 19:08 56.00401 -3.53443 9746 ft 280 kts 258°
2026-04-24 19:08 55.99912 -3.56847 10610 ft 287 kts 258°
2026-04-24 19:08 55.99400 -3.60436 11045 ft 312 kts 258°
2026-04-24 19:09 55.98847 -3.64321 11282 ft 343 kts 258°
2026-04-24 19:09 55.98235 -3.68601 11747 ft 365 kts 257°
2026-04-24 19:09 55.97593 -3.73047 12722 ft 374 kts 257°
2026-04-24 19:09 55.96939 -3.77568 13882 ft 378 kts 257°
2026-04-24 19:10 55.95945 -3.81925 14691 ft 388 kts 238°
2026-04-24 19:10 55.94001 -3.85335 15662 ft 399 kts 214°
2026-04-24 19:10 55.91473 -3.87412 16829 ft 404 kts 199°
2026-04-24 19:10 55.88704 -3.88332 17944 ft 409 kts 184°
2026-04-24 19:11 55.85847 -3.88224 18840 ft 415 kts 178°
2026-04-24 19:11 55.82939 -3.87880 19657 ft 422 kts 176°
2026-04-24 19:11 55.79999 -3.87474 20543 ft 427 kts 176°
2026-04-24 19:11 55.77018 -3.87070 21448 ft 431 kts 177°
2026-04-24 19:12 55.74017 -3.86693 22315 ft 436 kts 177°
2026-04-24 19:12 55.70971 -3.86342 23137 ft 441 kts 177°
2026-04-24 19:12 55.67886 -3.86008 23911 ft 447 kts 177°
2026-04-24 19:12 55.64760 -3.85683 24584 ft 452 kts 177°
2026-04-24 19:13 55.62630 -3.85466 25054 ft 455 kts 177°
2026-04-24 19:13 55.58424 -3.85041 25936 ft 460 kts 178°
2026-04-24 19:13 55.55214 -3.84716 26494 ft 467 kts 178°
2026-04-24 19:13 55.51924 -3.84385 26785 ft 479 kts 178°
2026-04-24 19:14 55.48568 -3.84046 27153 ft 487 kts 178°
2026-04-24 19:14 55.45170 -3.83702 27640 ft 491 kts 177°
2026-04-24 19:14 55.41748 -3.83356 28187 ft 494 kts 177°
2026-04-24 19:14 55.38306 -3.83008 28709 ft 496 kts 177°
2026-04-24 19:15 55.34855 -3.82659 29177 ft 499 kts 177°
2026-04-24 19:15 55.31384 -3.82310 29783 ft 498 kts 178°
2026-04-24 19:15 55.27923 -3.81958 30301 ft 500 kts 177°
2026-04-24 19:15 55.24447 -3.81215 30474 ft 507 kts 170°
2026-04-24 19:16 55.18790 -3.78376 31050 ft 510 kts 160°
2026-04-24 19:16 55.15555 -3.75839 31516 ft 509 kts 154°
2026-04-24 19:16 55.12394 -3.73061 31951 ft 509 kts 154°
2026-04-24 19:17 55.09230 -3.70271 32338 ft 509 kts 154°
2026-04-24 19:17 55.06072 -3.67504 32736 ft 509 kts 154°
2026-04-24 19:17 55.02908 -3.64758 33131 ft 508 kts 155°
2026-04-24 19:17 54.99725 -3.62020 33264 ft 513 kts 155°
2026-04-24 19:18 54.93333 -3.56571 33240 ft 509 kts 155°
2026-04-24 19:18 54.86985 -3.51190 33248 ft 507 kts 155°
2026-04-24 19:19 54.80644 -3.45832 33252 ft 508 kts 155°
2026-04-24 19:19 54.74288 -3.40476 33255 ft 508 kts 155°
2026-04-24 19:20 54.67911 -3.35120 33250 ft 510 kts 155°
2026-04-24 19:20 54.61513 -3.29766 33259 ft 512 kts 155°
2026-04-24 19:21 54.60477 -3.28900 33259 ft 512 kts 155°